This is the latest recevied weather packets stored in our database for station/object KC9Q. If no packets are shown the sender has not sent any weather packets the latest 10 day(s).
| Time | Temp. | Humidity | Pressure | Rain* | Wind** | Luminosity | Snow |
|---|---|---|---|---|---|---|---|
| 1777567181 | 15.56° C | 44% | 1018 hPa | 0 mm | - | 767 W/m² | - |
| 1777566878 | 15° C | 44% | 1018.2 hPa | 0 mm | - | 726 W/m² | - |
| 1777566576 | 15.56° C | 43% | 1018.3 hPa | 0 mm | - | 545 W/m² | - |
| 1777566273 | 15.56° C | 48% | 1018.4 hPa | 0 mm | - | 638 W/m² | - |
| 1777565971 | 15° C | 41% | 1018.4 hPa | 0 mm | - | 594 W/m² | - |
| 1777565666 | 15.56° C | 44% | 1018.5 hPa | 0 mm | - | 639 W/m² | - |
| 1777565363 | 15.56° C | 48% | 1018.4 hPa | 0 mm | - | 522 W/m² | - |
| 1777565058 | 15.56° C | 43% | 1018.1 hPa | 0 mm | - | 392 W/m² | - |
| 1777564754 | 15.56° C | 49% | 1018 hPa | 0 mm | - | 174 W/m² | - |
| 1777564450 | 15° C | 49% | 1018.1 hPa | 0 mm | - | 151 W/m² | - |
| 1777564146 | 15° C | 44% | 1018.2 hPa | 0 mm | - | 152 W/m² | - |
| 1777563841 | 15° C | 45% | 1018.1 hPa | 0 mm | - | 123 W/m² | - |
| 1777563539 | 15° C | 46% | 1017.9 hPa | 0 mm | - | 109 W/m² | - |
| 1777563238 | 15° C | 47% | 1017.8 hPa | 0 mm | - | 106 W/m² | - |
| 1777562935 | 15° C | 45% | 1018 hPa | 0 mm | - | 103 W/m² | - |
| 1777562630 | 15° C | 46% | 1018.1 hPa | 0 mm | - | 97 W/m² | - |
| 1777562330 | 15° C | 48% | 1018.1 hPa | 0 mm | - | 109 W/m² | - |
| 1777562026 | 14.44° C | 48% | 1018.2 hPa | 0 mm | - | 100 W/m² | - |
| 1777561724 | 14.44° C | 45% | 1018.2 hPa | 0 mm | - | 90 W/m² | - |
| 1777561418 | 14.44° C | 47% | 1017.9 hPa | 0 mm | - | 75 W/m² | - |
| 1777561114 | 14.44° C | 51% | 1018 hPa | 0 mm | - | 85 W/m² | - |
| 1777560810 | 14.44° C | 50% | 1018 hPa | 0 mm | - | 75 W/m² | - |
| 1777560508 | 13.89° C | 49% | 1018.1 hPa | 0 mm | - | 84 W/m² | - |
| 1777560205 | 14.44° C | 49% | 1017.9 hPa | 0 mm | - | 80 W/m² | - |
| 1777559902 | 13.89° C | 53% | 1018.1 hPa | 0 mm | - | 137 W/m² | - |
* Rain latest hour (hover to see other rain measurements)
** Current wind speed in m/s (hover to see current wind gust speed)